Location: Diguira
(13.1838°N, 4.9109°W)
Time: 16:39:07
(UTC+00:00)

Ariane H10-3 - Pass Details

Date: 18 September 2020
Orbit: 309 x 28685 km, 6.9° (Epoch: 24 October)

Event Time Altitude Azimuth Distance (km) Brightness Sun altitude
Rises 12:31:41 0° 258° (WSW) 15,720 9.3 77.6°
Reaches altitude 10° 12:46:42 10° 257° (WSW) 17,815 9.7 75.8°
Maximum altitude 19:45:22 66° 193° (SSW) 2,687 5.2 -22.0°
Enters shadow 19:50:02 33° 121° (ESE) 2,382 4.5 -23.1°
